[[{"header":{"parameterUnit":"m.s-1","parameterCategory":1,"la1":30.2991,"la2":30.254,"lo1":-89.0895,"lo2":-89.0444,"dy":0.0017,"dx":0.0017,"nx":28,"ny":28,"refTime":"2025-04-26T09:00:00:Z","depth":0,"parameterNumber":2,"parameterNumberName":"U-component_of_WINDS"},"data":[0,0,0,0,0,0,0,0,0,0,0,0,0,0,0,0,0,0,0,0,0,0,0,0,0,0,0,0,0,0,0,0,0,0,0,0,0,0,0,0,0,0,0,0,0,0,0,0,0,0,0,0,0,0,0,0,0,0,0.0279,0.028,0,0.0319,0.032,0.032,0.0336,0.0335,0.0335,0.0335,0.0375,0.0377,0.0378,0,0,0,0,0,0,0,0,0,0,0,0,0,0.0214,0.0215,0.0279,0.028,0.028,0.0319,0.032,0.032,0.0336,0.0335,0.0335,0.0335,0.0375,0.0376,0.0378,0,0,0,0,0,0,0,0,0,0,0,0,0,0.0247,0.0216,0.0279,0.0293,0.0294,0.0319,0.032,0.0321,0.0336,0.0335,0.0335,0.0335,0.0375,0.0376,0.0378,0.0393,0,0,0.0383,0.0384,0,0,0,0,0,0,0,0,0.0245,0.0249,0.029,0.0292,0.0294,0.0322,0.0312,0.0345,0.0336,0.032,0.0335,0.0335,0.0358,0.0361,0.0369,0.0394,0.0396,0.0384,0.0385,0.0385,0.0386,0,0,0,0,0,0,0,0.0243,0.0248,0.0295,0.0291,0.0293,0.0296,0.03,0.0318,0.0339,0.0321,0.0322,0.0327,0.0359,0.0367,0.037,0.0397,0.0384,0.0385,0.0386,0.0387,0.0435,0.0435,0,0,0,0,0,0,0.0239,0.0246,0.0294,0.0296,0.0269,0.0297,0.0302,0.0313,0.0339,0.0343,0.0327,0.0328,0.0364,0.0368,0.0371,0.0389,0.0385,0.0387,0.0388,0.0434,0.0435,0.0435,0,0,0,0,0,0,0.0237,0.0243,0.0292,0.0271,0.0278,0.0299,0.0311,0.0314,0.0323,0.0344,0.0347,0.0332,0.0364,0.0369,0.0387,0.0391,0.0388,0.039,0.0434,0.0434,0.0435,0.0425,0,0,0,0,0,0,0.0235,0.0242,0.0248,0.0271,0.0279,0.0308,0.0311,0.0315,0.0326,0.0327,0.0349,0.0353,0.0364,0.0384,0.0389,0.0393,0.0391,0.0434,0.0434,0.0435,0.0426,0.0425,0.0425,0,0,0,0,0,0.0233,0.0244,0.0249,0.0254,0.0287,0.0308,0.0312,0.0326,0.0326,0.0332,0.0345,0.0352,0.039,0.0386,0.0391,0.0396,0.0434,0.0434,0.0435,0.0426,0.0425,0.0425,0,0,0,0,0,0,0.0221,0.0248,0.0253,0.0272,0.0288,0.031,0.0319,0.0325,0.0341,0.0341,0.0357,0.0362,0.0378,0.0389,0.0384,0.0411,0.0412,0.0413,0.0403,0.0403,0.0403,0.04,0.0392,0,0,0,0,0,0.0221,0.0236,0.0258,0.0273,0.028,0.0298,0.0308,0.0316,0.0333,0.034,0.0354,0.037,0.0385,0.0395,0.041,0.0427,0.0431,0.0433,0.0433,0.0433,0.0434,0.0442,0.0443,0.0436,0.0436,0.0436,0,0,0.0221,0.0237,0.0246,0.0271,0.0284,0.0298,0.0304,0.0319,0.0329,0.0342,0.036,0.0371,0.0389,0.0406,0.0414,0.0416,0.0436,0.0433,0.0433,0.0434,0.0443,0.0443,0.0444,0.0437,0.0436,0.0436,0,0,0.0227,0.0242,0.0255,0.0268,0.0287,0.0299,0.0302,0.0323,0.0331,0.0349,0.0358,0.0371,0.0397,0.0409,0.0419,0.0428,0.0435,0.0433,0.0432,0.044,0.0441,0.0442,0.0444,0.0445,0.0434,0.0434,0.0434,0,0.0225,0.0247,0.0261,0.0276,0.0286,0.0298,0.0311,0.0322,0.0346,0.0352,0.0353,0.0385,0.0399,0.0418,0.042,0.0428,0.0431,0.043,0.044,0.0441,0.0441,0.0444,0.0445,0.0433,0.0433,0.0433,0.0433,0,0.0242,0.0257,0.0266,0.0288,0.0299,0.0313,0.0329,0.0338,0.0346,0.0357,0.0374,0.039,0.0408,0.0413,0.0421,0.0434,0.0434,0.0437,0.0438,0.0441,0.0444,0.0445,0.0433,0.0433,0.0433,0.0433,0,0,0.0244,0.0273,0.0275,0.0285,0.0307,0.0319,0.0332,0.035,0.0357,0.0373,0.0384,0.0405,0.0408,0.0419,0.0428,0.0435,0.044,0.0437,0.0438,0.0437,0.0454,0.0451,0.0453,0.0444,0.0444,0.0445,0.0452,0,0.0253,0.0279,0.0291,0.0311,0.0325,0.0335,0.0347,0.0361,0.0371,0.0383,0.0394,0.0409,0.0412,0.0418,0.0426,0.0438,0.0444,0.0437,0.0454,0.0455,0.045,0.0454,0.0452,0.0458,0.0454,0.0454,0.0454,0,0.0268,0.0283,0.0304,0.0323,0.0329,0.034,0.0356,0.0368,0.0384,0.039,0.0402,0.041,0.0424,0.0424,0.0443,0.0438,0.0445,0.0452,0.0453,0.0455,0.0455,0.0456,0.0461,0.0462,0.0456,0.0456,0.0456,0,0.0266,0.0292,0.0308,0.0315,0.0338,0.0345,0.0354,0.037,0.0379,0.0393,0.0399,0.0415,0.0423,0.0435,0.0446,0.0446,0.0464,0.0465,0.0469,0.0469,0.0473,0.0473,0.0479,0.0478,0.0478,0.0478,0.0478,0,0.0276,0.0288,0.0307,0.0317,0.033,0.0344,0.0357,0.0367,0.038,0.0392,0.0401,0.0411,0.0426,0.0438,0.0447,0.0461,0.0465,0.047,0.0473,0.0469,0.0469,0.0475,0.0475,0.0478,0.0478,0.0478,0.0478,0,0.0276,0.029,0.0308,0.0327,0.0332,0.0341,0.0358,0.0367,0.0377,0.0391,0.0395,0.0411,0.0425,0.0438,0.0457,0.0463,0.0476,0.0479,0.0471,0.0473,0.0476,0.0475,0.0486,0.0488,0.0486,0.0486,0.0486,0,0.0282,0.0291,0.0312,0.032,0.0329,0.0342,0.0352,0.0365,0.0374,0.0392,0.0398,0.0413,0.0426,0.0448,0.0461,0.0475,0.0478,0.0481,0.0481,0.0477,0.0478,0.0477,0.0478,0.0481,0.0481,0.0481,0.0481,0,0.0289,0.0295,0.0308,0.0323,0.0334,0.0347,0.036,0.0366,0.0381,0.0391,0.0406,0.0415,0.0434,0.0448,0.0464,0.0473,0.0479,0.0481,0.0483,0.048,0.0474,0.0477,0.0471,0.0481,0.0481,0.0481,0.0481,0.0481,0.0292,0.0301,0.0316,0.033,0.0341,0.0353,0.0362,0.0373,0.0386,0.0402,0.0409,0.0423,0.0437,0.0458,0.0467,0.0478,0.048,0.0482,0.0483,0.0483,0.0482,0.0472,0.0481,0.0481,0.0481,0.0481,0.0481,0,0.0299,0.0309,0.0322,0.034,0.0351,0.0356,0.037,0.0378,0.0391,0.0404,0.0416,0.0432,0.0446,0.0459,0.0473,0.0479,0.0482,0.0482,0.0482,0.0484,0.0481,0.0478,0.048,0.048,0.048,0.048,0.048,0.048,0.0304,0.0319,0.0327,0.0346,0.0356,0.0371,0.0378,0.0389,0.0399,0.0416,0.0428,0.0436,0.0449,0.0464,0.0476,0.0479,0.0484,0.0483,0.0487,0.0484,0.0484,0.0484,0.0482,0.0484,0.0484,0.049,0.049,0.049]},{"header":{"parameterUnit":"m.s-1","parameterCategory":1,"la1":30.2991,"la2":30.254,"lo1":-89.0895,"lo2":-89.0444,"dy":0.0017,"dx":0.0017,"nx":28,"ny":28,"refTime":"2025-04-26T09:00:00:Z","depth":0,"parameterNumber":3,"parameterNumberName":"V-component_of_WINDS"},"data":[0,0,0,0,0,0,0,0,0,0,0,0,0,0,0,0,0,0,0,0,0,0,0,0,0,0,0,0,0,0,0,0,0,0,0,0,0,0,0,0,0,0,0,0,0,0,0,0,0,0,0,0,0,0,0,0,0,0,3.3627,3.3627,0,3.3637,3.3637,3.3637,3.3595,3.3593,3.3592,3.3591,3.3599,3.36,3.3602,0,0,0,0,0,0,0,0,0,0,0,0,0,3.357,3.3572,3.3627,3.3627,3.3627,3.3637,3.3637,3.3637,3.3595,3.3593,3.3592,3.3591,3.3599,3.36,3.3602,0,0,0,0,0,0,0,0,0,0,0,0,0,3.3589,3.3572,3.3627,3.3607,3.3606,3.3637,3.3637,3.3637,3.3595,3.3593,3.3592,3.359,3.3598,3.36,3.3602,3.3651,0,0,3.3608,3.3609,0,0,0,0,0,0,0,0,3.3588,3.3591,3.361,3.3609,3.3607,3.3613,3.362,3.3642,3.3596,3.3599,3.3591,3.3589,3.3605,3.3606,3.3612,3.3652,3.3652,3.3608,3.361,3.361,3.3611,0,0,0,0,0,0,0,3.3587,3.359,3.3631,3.3611,3.3609,3.3598,3.3598,3.3624,3.3612,3.3599,3.3596,3.3598,3.3604,3.361,3.3612,3.3652,3.3608,3.361,3.3611,3.3612,3.3733,3.3735,0,0,0,0,0,0,3.3588,3.359,3.363,3.3631,3.3593,3.36,3.3601,3.3613,3.3612,3.361,3.3599,3.3596,3.3608,3.361,3.3612,3.3669,3.361,3.3612,3.3614,3.3731,3.3733,3.3735,0,0,0,0,0,0,3.3587,3.3592,3.363,3.361,3.3614,3.3603,3.3617,3.3614,3.362,3.3612,3.361,3.3608,3.3606,3.3609,3.3642,3.3669,3.3613,3.3615,3.3729,3.3732,3.3734,3.3785,0,0,0,0,0,0,3.3586,3.3592,3.3611,3.361,3.3615,3.366,3.3618,3.3615,3.3624,3.362,3.362,3.3618,3.3605,3.3639,3.3644,3.3671,3.3617,3.3726,3.373,3.3733,3.3781,3.3789,3.3796,0,0,0,0,0,3.3584,3.3625,3.3612,3.3618,3.3638,3.3662,3.3665,3.3649,3.3627,3.3645,3.364,3.3618,3.3666,3.3643,3.3648,3.3676,3.3724,3.3729,3.3733,3.3777,3.3787,3.3796,0,0,0,0,0,0,3.3628,3.3624,3.361,3.3652,3.3658,3.3655,3.3678,3.3661,3.3672,3.3668,3.3648,3.3648,3.3684,3.3683,3.3658,3.3724,3.3691,3.3697,3.3723,3.3732,3.374,3.3739,3.3618,0,0,0,0,0,3.3643,3.3663,3.3658,3.3695,3.3699,3.3688,3.3698,3.3686,3.3691,3.3693,3.369,3.3695,3.3711,3.3722,3.3736,3.3781,3.378,3.3803,3.381,3.3817,3.3822,3.3845,3.3855,3.375,3.375,3.375,0,0,3.3673,3.3673,3.3687,3.3704,3.3707,3.3728,3.369,3.3714,3.3729,3.3696,3.3727,3.3725,3.3729,3.3768,3.3785,3.3769,3.3851,3.3823,3.3828,3.3829,3.385,3.386,3.3869,3.3753,3.3753,3.3752,0,0,3.3738,3.3741,3.3772,3.3776,3.3782,3.3774,3.3782,3.3782,3.378,3.3811,3.3787,3.3804,3.3832,3.3836,3.3842,3.391,3.389,3.3916,3.3956,3.3979,3.3987,3.3994,3.4018,3.4027,3.3921,3.3921,3.3921,0,3.3774,3.3805,3.379,3.3815,3.3823,3.3796,3.3827,3.3832,3.3841,3.3847,3.3829,3.3864,3.3865,3.3904,3.3921,3.3927,3.3934,3.3915,3.3988,3.3995,3.4001,3.4023,3.4032,3.3924,3.3923,3.3923,3.3923,0,3.385,3.3872,3.3896,3.3907,3.3918,3.3946,3.3935,3.3947,3.3935,3.393,3.3961,3.3962,3.3976,3.3985,3.3972,3.4022,3.4012,3.3991,3.3957,3.4014,3.4035,3.4043,3.3928,3.3927,3.3926,3.3925,0,0,3.3941,3.3944,3.3953,3.3958,3.3963,3.3979,3.4006,3.4021,3.4032,3.404,3.4061,3.4086,3.4067,3.4074,3.4062,3.4082,3.4136,3.4059,3.4058,3.4072,3.419,3.4205,3.4215,3.4123,3.4125,3.4126,3.419,0,3.4005,3.4051,3.4039,3.4085,3.4105,3.408,3.4103,3.4108,3.4104,3.412,3.4115,3.4133,3.4107,3.4111,3.413,3.4125,3.4159,3.4121,3.4142,3.4143,3.414,3.4226,3.4242,3.4302,3.4198,3.4199,3.42,0,3.4084,3.4096,3.4145,3.4147,3.4154,3.4176,3.4188,3.4204,3.4209,3.4205,3.4213,3.4197,3.4223,3.4191,3.4226,3.42,3.4209,3.4208,3.421,3.421,3.4174,3.4228,3.4321,3.4329,3.4213,3.4212,3.4211,0,3.4145,3.4174,3.4206,3.4211,3.4214,3.423,3.4232,3.4235,3.4245,3.4256,3.4262,3.4276,3.4283,3.4293,3.4281,3.4259,3.4318,3.4285,3.4315,3.4315,3.4327,3.4326,3.4421,3.4335,3.4334,3.4334,3.4334,0,3.4217,3.4247,3.4234,3.4254,3.4287,3.4273,3.4306,3.4305,3.4308,3.4327,3.4307,3.4325,3.4308,3.4325,3.4316,3.4346,3.435,3.4346,3.4343,3.4347,3.4348,3.4352,3.4347,3.4337,3.4336,3.4336,3.4335,0,3.4289,3.4282,3.4316,3.4317,3.4318,3.4342,3.4342,3.436,3.4356,3.438,3.4385,3.4377,3.4395,3.4385,3.4403,3.4397,3.4437,3.4428,3.4435,3.4432,3.4462,3.4459,3.4562,3.4575,3.4481,3.4482,3.4482,0,3.4335,3.4358,3.4361,3.4373,3.4377,3.4396,3.4406,3.4393,3.4404,3.4412,3.4429,3.4446,3.4459,3.4489,3.4485,3.4499,3.4491,3.4526,3.4492,3.4496,3.449,3.4488,3.449,3.4532,3.4533,3.4534,3.4535,0,3.4416,3.4411,3.4427,3.4442,3.4455,3.4466,3.4475,3.4485,3.4472,3.4486,3.4505,3.4515,3.4535,3.4551,3.4564,3.4565,3.4548,3.4546,3.4553,3.4557,3.4559,3.4558,3.4452,3.4543,3.4542,3.4541,3.4541,3.4541,3.4476,3.4495,3.4501,3.4519,3.4525,3.4534,3.4551,3.4549,3.4565,3.458,3.4572,3.4594,3.4599,3.4614,3.4618,3.4634,3.462,3.4631,3.4634,3.4636,3.464,3.4558,3.4637,3.4637,3.4636,3.4636,3.4636,0,3.4555,3.4558,3.4575,3.4589,3.4603,3.4587,3.4596,3.4609,3.4629,3.4636,3.4649,3.4671,3.4688,3.4685,3.47,3.4714,3.4706,3.4718,3.4716,3.4717,3.4652,3.4644,3.4724,3.4724,3.4724,3.4724,3.4724,3.4724,3.4598,3.4629,3.4626,3.466,3.4662,3.4685,3.4692,3.47,3.4705,3.4731,3.4745,3.4743,3.4746,3.4761,3.4775,3.4774,3.478,3.4795,3.479,3.473,3.4721,3.4713,3.4705,3.4796,3.4796,3.4853,3.4854,3.4854]}]]